Universal City, TX

5:35 AM CST on February 22, 2017 (GMT -0600)
Randolph Air Force Base

Weather History for KRND - August, 2013

Change the Weather History Date:

Wednesday, August 28, 2013

  Actual Average Record
Temperature  
Mean Temperature 84 °F -  
Max Temperature 95 °F 91 °F 110 °F (2011)
Min Temperature 73 °F 71 °F 64 °F (2010)
Cooling Degree Days 18    
Growing Degree Days 34 (Base 50)    
Moisture  
Dew Point 70 °F    
Average Humidity 76    
Maximum Humidity 94    
Minimum Humidity 34    
Precipitation  
Precipitation 0.00 in - - ()
Sea Level Pressure  
Sea Level Pressure 30.06 in    
Wind  
Wind Speed 3 mph (SE)    
Max Wind Speed 12 mph    
Max Gust Speed 17 mph    
Visibility 10 miles    
Events      
Averages and records for this station are not official NWS values.
T = Trace of Precipitation, MM = Missing Value Source: NWS Daily Summary

Daily Weather History Graph

Daily Weather History Graph

Search for Another Location

Airport or City:

Trip Planner

Search our weather history database for the weather conditions in past years. The results will help you decide how hot, cold, wet, or windy it might be!

Date:

Astronomy

Aug. 28, 2013 Rise Set
Actual Time 7:08 AM CDT 7:59 PM CDT
Civil Twilight 6:44 AM CDT 8:23 PM CDT
Nautical Twilight 6:15 AM CDT 8:52 PM CDT
Astronomical Twilight 5:45 AM CDT 9:21 PM CDT
Moon 12:28 AM CDT (8/28) 2:25 PM CDT (8/28)
Length of Visible Light 13h 39m
Length of Day
12h 50m
Waning Gibbous, 47% of the Moon is Illuminated
Aug 28
Waning Gibbous
Sep 5
New
Sep 12
First Quarter
Sep 19
Full
Sep 26
Last Quarter

Hourly Weather History & Observations

Time (CDT) Temp. Heat Index Dew Point Humidity Pressure Visibility Wind Dir Wind Speed Gust Speed Precip Events Conditions
12:58 AM 73.8 °F - 70.5 °F 90% 30.05 in 10.0 mi SE 2.3 mph - N/A   Partly Cloudy
1:43 AM 73.4 °F - 71.6 °F 94% 30.07 in 10.0 mi East 2.3 mph - N/A   Mostly Cloudy
1:58 AM 74.5 °F - 71.2 °F 90% 30.05 in 10.0 mi ENE 2.3 mph - N/A   Mostly Cloudy
2:03 AM 75.2 °F - 71.6 °F 89% 30.07 in 10.0 mi ENE 1.2 mph - N/A   Scattered Clouds
2:58 AM 73.4 °F - 69.8 °F 88% 30.05 in 10.0 mi Calm Calm - N/A   Mostly Cloudy
3:03 AM 73.4 °F - 69.8 °F 88% 30.08 in 10.0 mi Calm Calm - N/A   Mostly Cloudy
3:08 AM 73.4 °F - 71.6 °F 94% 30.07 in 10.0 mi Calm Calm - N/A   Mostly Cloudy
3:13 AM 73.4 °F - 71.6 °F 94% 30.07 in 10.0 mi Calm Calm - N/A   Mostly Cloudy
3:33 AM 73.4 °F - 69.8 °F 88% 30.07 in 10.0 mi Calm Calm - N/A   Scattered Clouds
3:38 AM 73.4 °F - 69.8 °F 88% 30.07 in 10.0 mi WNW 2.3 mph - N/A   Mostly Cloudy
3:48 AM 75.2 °F - 71.6 °F 89% 30.06 in 10.0 mi SW 3.5 mph - N/A   Scattered Clouds
3:58 AM 75.6 °F - 72.1 °F 89% 30.04 in 10.0 mi Variable 1.2 mph - N/A   Scattered Clouds
4:42 AM 75.2 °F - 71.6 °F 89% 30.06 in 10.0 mi Variable 2.3 mph - N/A   Mostly Cloudy
4:58 AM 75.7 °F - 72.7 °F 90% 30.05 in 10.0 mi SSW 2.3 mph - N/A   Mostly Cloudy
5:08 AM 75.2 °F - 71.6 °F 89% 30.07 in 10.0 mi SSW 2.3 mph - N/A   Mostly Cloudy
5:13 AM 75.2 °F - 71.6 °F 89% 30.07 in 10.0 mi South 2.3 mph - N/A   Mostly Cloudy
5:18 AM 75.2 °F - 71.6 °F 89% 30.07 in 10.0 mi Calm Calm - N/A   Mostly Cloudy
5:23 AM 75.2 °F - 71.6 °F 89% 30.07 in 10.0 mi Calm Calm - N/A   Scattered Clouds
5:33 AM 75.2 °F - 71.6 °F 89% 30.07 in 10.0 mi WSW 1.2 mph - N/A   Mostly Cloudy
5:43 AM 75.2 °F - 71.6 °F 89% 30.07 in 10.0 mi Calm Calm - N/A   Mostly Cloudy
5:58 AM 74.3 °F - 71.8 °F 92% 30.06 in 10.0 mi Variable 1.2 mph - N/A   Overcast
6:48 AM 75.2 °F - 73.4 °F 94% 30.08 in 10.0 mi SW 2.3 mph - N/A   Scattered Clouds
6:58 AM 75.4 °F - 72.7 °F 91% 30.06 in 10.0 mi SW 2.3 mph - N/A   Scattered Clouds
7:48 AM 73.4 °F - 71.6 °F 94% 30.09 in 0.8 mi Calm Calm - N/A   Mist
7:53 AM 73.4 °F - 71.6 °F 94% 30.10 in 4.0 mi Calm Calm - N/A   Scattered Clouds
7:58 AM 73.4 °F - 71.6 °F 94% 30.08 in 5.0 mi East 2.3 mph - N/A   Mostly Cloudy
8:13 AM 75.2 °F - 73.4 °F 94% 30.10 in 7.0 mi East 2.3 mph - N/A   Mostly Cloudy
8:28 AM 75.2 °F - 73.4 °F 94% 30.11 in 10.0 mi ENE 2.3 mph - N/A   Overcast
8:42 AM 77.0 °F - 73.4 °F 89% 30.11 in 10.0 mi NE 1.2 mph - N/A   Scattered Clouds
8:54 AM 78.8 °F - 73.4 °F 83% 30.11 in 10.0 mi North 1.2 mph - N/A   Scattered Clouds
9:55 AM 82.4 °F 87.2 °F 71.6 °F 70% 30.13 in 10.0 mi SSE 4.6 mph - N/A   Scattered Clouds
10:58 AM 85.1 °F 88.5 °F 68.2 °F 57% 30.11 in 10.0 mi Variable 2.3 mph - N/A   Clear
11:58 AM 86.7 °F 89.6 °F 67.1 °F 52% 30.11 in 10.0 mi Variable 3.5 mph - N/A   Partly Cloudy
12:58 PM 89.6 °F 92.6 °F 66.7 °F 47% 30.09 in 10.0 mi Variable 2.3 mph - N/A   Partly Cloudy
1:58 PM 91.9 °F 94.1 °F 64.9 °F 41% 30.06 in 10.0 mi ESE 8.1 mph - N/A   Scattered Clouds
2:58 PM 92.1 °F 93.6 °F 63.9 °F 39% 30.05 in 10.0 mi SE 9.2 mph - N/A   Clear
3:58 PM 93.2 °F 94.9 °F 63.9 °F 38% 30.01 in 10.0 mi South 9.2 mph - N/A   Clear
4:58 PM 93.9 °F 95.2 °F 63.3 °F 36% 30.01 in 10.0 mi SSE 11.5 mph - N/A   Clear
5:58 PM 94.6 °F 95.5 °F 62.4 °F 34% 29.99 in 10.0 mi SE 5.8 mph 17.3 mph N/A   Partly Cloudy
6:58 PM 92.7 °F 93.6 °F 62.6 °F 37% 29.99 in 10.0 mi SE 8.1 mph - N/A   Clear
7:58 PM 88.9 °F 90.3 °F 64.4 °F 44% 30.00 in 10.0 mi SE 8.1 mph - N/A   Clear
8:58 PM 82.8 °F 84.7 °F 65.8 °F 56% 30.02 in 10.0 mi SE 5.8 mph - N/A   Clear
9:58 PM 82.6 °F 85.3 °F 67.3 °F 60% 30.04 in 10.0 mi SE 10.4 mph - N/A   Clear
10:23 PM 82.4 °F 85.4 °F 68.0 °F 62% 30.06 in 9.0 mi SSE 9.2 mph - N/A   Clear
10:33 PM 82.4 °F 85.4 °F 68.0 °F 62% 30.06 in 10.0 mi SSE 9.2 mph - N/A   Clear
10:58 PM 81.0 °F 83.8 °F 68.4 °F 65% 30.04 in 10.0 mi SSE 9.2 mph - N/A   Clear
11:58 PM 79.5 °F - 69.1 °F 70% 30.05 in 10.0 mi South 5.8 mph - N/A   Clear